Time,TemperatureF,DewpointF,PressureIn,WindDirection,WindDirectionDegrees,WindSpeedMPH,WindSpeedGustMPH,Humidity,HourlyPrecipIn,Conditions,Clouds,dailyrainin,SoftwareType,DateUTC
2013-08-30 00:00:00,69.2,67.7,29.82,North,-999,0.0,0.0,95,0.00,,,-99.99,WeatherLink 5.6,2013-08-30 04:00:00,
2013-08-30 00:30:00,69.3,67.8,29.80,NE,45,0.0,1.0,95,0.00,,,-99.99,WeatherLink 5.6,2013-08-30 04:30:00,
2013-08-30 01:00:00,69.2,67.7,29.80,North,-999,0.0,0.0,95,0.00,,,-99.99,WeatherLink 5.6,2013-08-30 05:00:00,
2013-08-30 01:30:00,69.2,67.4,29.79,North,-999,0.0,0.0,94,0.00,,,-99.99,WeatherLink 5.6,2013-08-30 05:30:00,
2013-08-30 02:00:00,69.2,67.4,29.78,SE,135,0.0,3.0,94,0.00,,,-99.99,WeatherLink 5.6,2013-08-30 06:00:00,
2013-08-30 02:30:00,68.6,66.8,29.78,South,180,1.0,6.0,94,0.00,,,-99.99,WeatherLink 5.6,2013-08-30 06:30:00,
2013-08-30 03:00:00,68.0,66.2,29.78,South,180,2.0,10.0,94,0.00,,,-99.99,WeatherLink 5.6,2013-08-30 07:00:00,
2013-08-30 03:30:00,67.7,66.2,29.78,South,180,4.0,10.0,95,0.00,,,-99.99,WeatherLink 5.6,2013-08-30 07:30:00,
2013-08-30 04:00:00,67.4,65.9,29.78,SSE,157,4.0,10.0,95,0.00,,,-99.99,WeatherLink 5.6,2013-08-30 08:00:00,
2013-08-30 04:30:00,67.6,65.8,29.78,SSE,157,5.0,12.0,94,0.01,,,-99.99,WeatherLink 5.6,2013-08-30 08:30:00,
2013-08-30 05:00:00,67.2,65.4,29.79,South,180,4.0,11.0,94,0.01,,,-99.99,WeatherLink 5.6,2013-08-30 09:00:00,
2013-08-30 05:30:00,67.1,65.3,29.79,South,180,4.0,11.0,94,0.00,,,-99.99,WeatherLink 5.6,2013-08-30 09:30:00,
2013-08-30 06:00:00,66.9,64.8,29.79,South,180,3.0,9.0,93,0.00,,,-99.99,WeatherLink 5.6,2013-08-30 10:00:00,
2013-08-30 06:30:00,67.3,64.6,29.81,South,180,4.0,11.0,91,0.00,,,-99.99,WeatherLink 5.6,2013-08-30 10:30:00,
2013-08-30 07:00:00,67.2,64.5,29.81,South,180,3.0,11.0,91,0.00,,,-99.99,WeatherLink 5.6,2013-08-30 11:00:00,
2013-08-30 07:30:00,67.1,64.7,29.83,South,180,4.0,11.0,92,0.00,,,-99.99,WeatherLink 5.6,2013-08-30 11:30:00,
2013-08-30 08:00:00,68.7,65.6,29.82,South,180,4.0,11.0,90,0.00,,,-99.99,WeatherLink 5.6,2013-08-30 12:00:00,
2013-08-30 08:30:00,69.7,66.0,29.83,South,180,3.0,11.0,88,0.00,,,-99.99,WeatherLink 5.6,2013-08-30 12:30:00,
2013-08-30 09:00:00,70.6,66.5,29.83,SSE,157,3.0,10.0,87,0.00,,,-99.99,WeatherLink 5.6,2013-08-30 13:00:00,
2013-08-30 09:30:00,72.1,67.3,29.83,South,180,3.0,14.0,85,0.00,,,-99.99,WeatherLink 5.6,2013-08-30 13:30:00,
2013-08-30 10:00:00,72.4,67.6,29.83,South,180,5.0,17.0,85,0.00,,,-99.99,WeatherLink 5.6,2013-08-30 14:00:00,
2013-08-30 10:30:00,73.9,68.8,29.83,South,180,3.0,12.0,84,0.00,,,-99.99,WeatherLink 5.6,2013-08-30 14:30:00,
2013-08-30 11:00:00,74.3,69.1,29.83,South,180,4.0,13.0,84,0.00,,,-99.99,WeatherLink 5.6,2013-08-30 15:00:00,
2013-08-30 11:30:00,75.6,70.1,29.82,South,180,2.0,11.0,83,0.00,,,-99.99,WeatherLink 5.6,2013-08-30 15:30:00,
2013-08-30 12:00:00,75.0,69.8,29.82,South,180,3.0,13.0,84,0.00,,,-99.99,WeatherLink 5.6,2013-08-30 16:00:00,
2013-08-30 12:30:00,75.7,70.2,29.81,South,180,3.0,13.0,83,0.00,,,-99.99,WeatherLink 5.6,2013-08-30 16:30:00,
2013-08-30 13:00:00,77.6,70.6,29.79,South,180,3.0,13.0,79,0.00,,,-99.99,WeatherLink 5.6,2013-08-30 17:00:00,
2013-08-30 13:30:00,78.7,69.7,29.78,South,180,3.0,15.0,74,0.00,,,-99.99,WeatherLink 5.6,2013-08-30 17:30:00,
2013-08-30 14:00:00,78.2,69.2,29.78,South,180,2.0,12.0,74,0.00,,,-99.99,WeatherLink 5.6,2013-08-30 18:00:00,
2013-08-30 14:30:00,79.3,71.1,29.77,South,180,1.0,11.0,76,0.00,,,-99.99,WeatherLink 5.6,2013-08-30 18:30:00,
2013-08-30 15:00:00,81.1,70.8,29.76,South,180,2.0,11.0,71,0.00,,,-99.99,WeatherLink 5.6,2013-08-30 19:00:00,
2013-08-30 15:30:00,80.1,68.6,29.75,South,180,1.0,11.0,68,0.00,,,-99.99,WeatherLink 5.6,2013-08-30 19:30:00,
2013-08-30 16:00:00,81.7,71.0,29.74,WSW,247,1.0,7.0,70,0.00,,,-99.99,WeatherLink 5.6,2013-08-30 20:00:00,
2013-08-30 16:30:00,80.8,68.8,29.74,West,270,1.0,10.0,67,0.00,,,-99.99,WeatherLink 5.6,2013-08-30 20:30:00,
2013-08-30 17:00:00,80.0,68.5,29.74,North,-999,0.0,0.0,68,0.00,,,-99.99,WeatherLink 5.6,2013-08-30 21:00:00,
2013-08-30 17:30:00,79.6,70.2,29.74,West,270,0.0,6.0,73,0.00,,,-99.99,WeatherLink 5.6,2013-08-30 21:30:00,
2013-08-30 18:00:00,78.9,69.1,29.73,North,-999,0.0,0.0,72,0.00,,,-99.99,WeatherLink 5.6,2013-08-30 22:00:00,
2013-08-30 18:30:00,78.7,68.9,29.72,North,-999,0.0,0.0,72,0.00,,,-99.99,WeatherLink 5.6,2013-08-30 22:30:00,
2013-08-30 19:00:00,78.4,68.6,29.72,North,-999,0.0,0.0,72,0.00,,,-99.99,WeatherLink 5.6,2013-08-30 23:00:00,
2013-08-30 19:30:00,76.7,68.2,29.73,North,-999,0.0,0.0,75,0.00,,,-99.99,WeatherLink 5.6,2013-08-30 23:30:00,
2013-08-30 20:00:00,75.4,67.7,29.73,North,-999,0.0,0.0,77,0.00,,,-99.99,WeatherLink 5.6,2013-08-31 00:00:00,
2013-08-30 20:30:00,74.5,66.8,29.73,North,-999,0.0,0.0,77,0.00,,,-99.99,WeatherLink 5.6,2013-08-31 00:30:00,
2013-08-30 21:00:00,74.7,67.0,29.73,North,-999,0.0,0.0,77,0.00,,,-99.99,WeatherLink 5.6,2013-08-31 01:00:00,
2013-08-30 21:30:00,74.4,66.3,29.73,North,-999,0.0,0.0,76,0.00,,,-99.99,WeatherLink 5.6,2013-08-31 01:30:00,
2013-08-30 22:00:00,74.1,66.8,29.73,North,-999,0.0,0.0,78,0.00,,,-99.99,WeatherLink 5.6,2013-08-31 02:00:00,
2013-08-30 22:30:00,72.4,66.6,29.73,North,-999,0.0,0.0,82,0.00,,,-99.99,WeatherLink 5.6,2013-08-31 02:30:00,
2013-08-30 23:00:00,72.4,66.9,29.74,North,-999,0.0,0.0,83,0.00,,,-99.99,WeatherLink 5.6,2013-08-31 03:00:00,
2013-08-30 23:30:00,72.1,67.0,29.74,North,-999,0.0,0.0,84,0.00,,,-99.99,WeatherLink 5.6,2013-08-31 03:30:00,